Regional Weather Roundup
Issued by NWS

Home | Current Version | Previous Version | Text Only | Print | Product List | Glossary On
Versions: 1 2 3 4 5 6 7 8 9 10 11 12 13 14 15 16 17 18 19 20 21 22 23 24 25 26 27 28 29 30 31 32 33 34 35 36 37 38 39 40 41 42 43 44 45 46 47 48 49 50
000
ASUS42 KKEY 031910
RWRKEY

FLORIDA REGIONAL WEATHER ROUNDUP FOR THE FLORIDA KEYS
NATIONAL WEATHER SERVICE KEY WEST FLORIDA
300 PM EDT MON AUG 03 2015

...SOUTH FLORIDA AND THE KEYS...

CITY           SKY/WX    TMP DP  RH WIND       PRES   REMARKS
FORT MYERS     CLOUDY    80  69  69 NW12      30.00F
SW REGIONAL AP CLOUDY    80  69  69 NW9       30.01F
NAPLES         CLOUDY    85  72  65 N10       30.01F HX  91
MIAMI          CLOUDY    77  71  82 SW5       30.03R
WEST KENDALL   LGT RAIN  73  71  93 SW8       30.05R
HOMESTEAD      LGT RAIN  75  71  88 N15G22    30.03R FOG
MARATHON       PTSUNNY   90  77  65 S6        29.99F HX 103
BOCA CHICA NAS PTSUNNY   89  74  60 S8        29.99F HX  98
KEY WEST INTL  MOSUNNY   88  74  63 S8        29.99F HX  96

...INTERNATIONAL WEATHER...

CITY           SKY/WX    TMP DP  RH WIND       PRES   REMARKS
NASSAU BAHAMAS MOSUNNY   86  73  66 S6        30.02F HX  93
CANCUN MEXICO  PTSUNNY   86  77  74 SE16      29.96F HX  97
COZUMEL MEXICO MOSUNNY   88  72  58 S7        29.96F HX  94

ADJACENT COASTAL WATERS...

STATION/POSITION TIME  SKY/WX   TEMP    WIND        PRES    WAVE
                                AIR SEA DIR/SP/G            HT/PER
                 (UTC)          (F)     (DEG/KT/KT) (MB)    (FT/S)
PULASKI SHOAL LI 1800            85     110/  3/  4 1016.2S
SAND KEY         1850            84     140/  5/  7 1015.6F
SOMBRERO KEY     1900            87     180/  6/  7 1016.3F
LONG KEY         1800            83 89  160/ 13/ 14 1016.8F
MOLASSES REEF    1900            85 87  160/  7/  8 1016.1S
FOWEY ROCKS      NOT AVBL

$$



USA.gov is the U.S. government's official web portal to all federal, state and local government web resources and services.